This demonstration page uses our WeatherBlox Daily Observations layout. Learn more.

Left ArrowRight Arrow

53.62937, 11.41316

Hourly Observations for January 11, 2016

Temp ( °F °C ) Dew Point ( °F °C ) Humidity (%) Winds ( mph kmh ) Pressure ( in mb ) Visibility ( mi km ) Precip ( " mm )
5:20 am 05:20 Mostly Cloudy 36 2 34 1 93 93 E 3 6 29.32 993 30 48 N/A
5:50 am 05:50 Mostly Cloudy with Mist and Fog 34 1 32 0 93 93 ESE 6 9 29.29 992 2 4 N/A
6:20 am 06:20 Mostly Cloudy with Mist and Fog 32 0 32 0 100 100 NNE 3 6 29.29 992 3 5 N/A
6:50 am 06:50 Mostly Cloudy with Mist and Fog 34 1 34 1 100 100 E 5 7 29.29 992 3 5 N/A
7:20 am 07:20 Mostly Cloudy with Mist and Fog 36 2 34 1 93 93 ESE 5 7 29.29 992 3 5 N/A
7:50 am 07:50 Mostly Cloudy with Mist and Fog 34 1 34 1 100 100 E 5 7 29.29 992 2 4 N/A
8:20 am 08:20 Mostly Cloudy with Mist and Fog 34 1 34 1 100 100 ENE 5 7 29.29 992 1 2 N/A
8:50 am 08:50 Mostly Cloudy with Mist and Fog 34 1 32 0 93 93 E 5 7 29.29 992 1 1 N/A
9:20 am 09:20 Mostly Cloudy with Mist and Fog 34 1 34 1 100 100 E 7 11 29.29 992 1 2 N/A
9:50 am 09:50 Mostly Cloudy with Mist and Fog 34 1 34 1 100 100 ESE 6 9 29.29 992 3 5 N/A
10:20 am 10:20 Mostly Cloudy 36 2 36 2 100 100 SE 3 6 29.29 992 30 48 N/A
10:50 am 10:50 Mostly Cloudy 36 2 36 2 100 100 ENE 5 7 29.29 992 5 8 N/A
11:20 am 11:20 Mostly Cloudy 37 3 36 2 93 93 E 3 6 29.29 992 5 8 N/A
11:50 am 11:50 Mostly Cloudy 37 3 36 2 93 93 ESE 5 7 29.29 992 6 9 N/A
12:20 pm 12:20 Mostly Cloudy 39 4 37 3 93 93 VRB 2 4 29.26 991 30 48 N/A
12:50 pm 12:50 Mostly Cloudy 39 4 37 3 93 93 ESE 5 7 29.26 991 30 48 N/A
1:20 pm 13:20 Partly Cloudy 39 4 37 3 93 93 ESE 6 9 29.26 991 30 48 N/A
1:50 pm 13:50 Mostly Cloudy with Mist and Fog 37 3 36 2 93 93 E 8 13 29.26 991 1 1 N/A
2:20 pm 14:20 Mostly Cloudy with Fog 37 3 36 2 93 93 E 7 11 29.23 990 0 0 N/A
2:50 pm 14:50 Mostly Cloudy with Fog 37 3 36 2 93 93 E 7 11 29.23 990 0 1 N/A
3:20 pm 15:20 Mostly Cloudy with Fog 37 3 36 2 93 93 E 12 19 29.23 990 0 1 N/A
3:50 pm 15:50 Mostly Cloudy with Fog 36 2 36 2 100 100 E 10 17 29.23 990 0 1 N/A
4:20 pm 16:20 Mostly Cloudy with Fog 36 2 36 2 100 100 E 10 17 29.23 990 0 0 N/A
4:50 pm 16:50 Mostly Cloudy with Fog 34 1 34 1 100 100 E 10 17 29.23 990 0 0 N/A
5:20 pm 17:20 Mostly Cloudy with Fog 34 1 34 1 100 100 E 10 17 29.21 989 0 0 N/A
5:50 pm 17:50 Cloudy with Fog 34 1 34 1 100 100 E 12 19 29.21 989 0 0 N/A

Powered by AerisWeather